Location: Campillo
(40.8621°N, 4.2488°W)
Time: 09:38:48
(UTC+00:00)

ISS - Visible Passes

Search period start: 30 July 2021 00:00
Search period end: 09 August 2021 00:00
Orbit: 419 x 421 km, 51.6° (Epoch: 30 July)

Date Brightness Start Highest point End Pass type
(mag) Time Alt. Az. Time Alt. Az. Time Alt. Az.
30 Jul -2.6 20:24:15 10° NW 20:27:24 35° NNE 20:30:19 11° E visible
30 Jul -2.0 22:01:09 10° WNW 22:03:16 26° WSW 22:03:16 26° WSW visible
31 Jul -3.4 21:13:38 10° WNW 21:16:57 52° SW 21:17:42 41° S visible
01 Aug -3.8 20:26:16 10° NW 20:29:40 89° NE 20:32:12 17° SE visible
02 Aug -1.7 21:16:31 10° W 21:18:51 18° SW 21:19:43 16° SSW visible
03 Aug -2.3 20:28:42 10° WNW 20:31:41 29° SW 20:34:21 12° SSE visible
